P/2016 G1 ( PanSTARRS ) 2021

Japanese version
Home page
Updated on November 3, 2020

---------------------------------------------------------------------

* Profile

* Orbital Elements

Epoch 2021 Mar. 7.0 TT = JDT 2459280.5
T 2021 Mar. 22.19731 TT                                 MPCW
q   2.0378342            (2000.0)            P               Q
n   0.23733050     Peri.  111.21486     +0.70328844     +0.70666727
a   2.5836500      Node   204.03838     -0.70216861     +0.67346691
e   0.2112576      Incl.   10.96811     -0.11110633     +0.21694168
P   4.15
From 134 observations 2016 Mar. 12-Aug. 9, mean residual 0".6.

* Magnitudes Graph

        H = 18.0  G = 0.15

        * Gray curve is:  m1 = 13.5 + 5 log d + 10.0 log r

---------------------------------------------------------------------

The orbital elements are published on M.P.E.C. 2016-Q04.
The magnitudes graphs are made with Comet for Windows.

---------------------------------------------------------------------

Copyright(C) Seiichi Yoshida (comet@aerith.net). All rights reserved.